TJS-14

导读

TJS-14即通信技术试验卫星十四号,是中国于2025年1月23日在西昌卫星发射中心,通过长征三号乙运载火箭成功发射的试验卫星。卫星顺利进入预定轨道,发射任务圆满成功,主要用于开展卫星通信、广播电视、数据传输等业务,并完成相关空间技术的试验验证,是中国通信技术试验领域的重要实践。

基本信息
目录编号:
62804
目录名称:
TJS-14
国际标识:
2025-017A
轨道中心:
EARTH
卫星名称:
TJS-14
卫星全名:
TJS-14
卫星状态:
在轨 (已飞行508 天)
发射日期:
2025-01-23 UTC
国别 :
中国 (CN)
星等 :
--
轨道信息
数据来源 国际轨道数据 AOE轨道数据
星历时间 2026-06-15T05:39:12+0800
2小时前
查看轨道信息
2026-06-15T05:00:00+0800
3小时前
查看轨道信息
半长轴 42164.336km 42164.308km
偏心率 0.0000969 0.0000969
轨道倾角 0.788° 0.788°
近地点辐角 289.963° 292.047°
升交点赤经 295.453° 295.555°
平近点角 20.956° 8.941°
近地点 35782.113km 35782.085km
远地点 35790.285km 35790.257km
周期 1436.077分钟 1436.075分钟
每日圈数 1.002732 1.002733
详细信息
使用方式:
暂无
2D轨道图
3D轨道图
轨道高度分析图
轨道倾角分析图
轨道综合分析图
查看轨道综合分析图